Volver al catálogo

STARLINK-11325

ActivoComunicacionesVLEO
NORAD 61538·PAYLOAD·🇺🇸 United States

Lanzado Oct 15, 2024 desde Vandenberg Space Force Base

Loading…

Próximos Pases (próximas 24 horas)

TLE

ActualizadoSource: CelesTrak SupGP

Época: Sep 14, 2026, 21:09 UTC

1 61538C 24184G   26257.88173611  .00064757  00000+0  53331-3 0  2572
2 61538  53.1569  23.3617 0001089  79.3252 349.6782 15.69682366    14

Sigue STARLINK-11325 en tiempo real con AllMySat

Download on the App Store